• In Romania
  • List of Countries
  • For 7 days
  • Water Temperature
  • Satellite Maps
  • Weather Map
  • Weather Widgets
  • user-avatar
    Login

    Hourly Weather Sozopol

    Today, 25 September, Tuesday

    Time Temperature Precipitation Wind Pressure Humidity
    00:00 +16°C° 0.1 mm 11 mps 759 mmHg 58%
    01:00 +14°C° 0.1 mm 10 mps 760 mmHg 63%
    02:00 +13°C° 0.1 mm 9 mps 761 mmHg 67%
    03:00 +12°C° 0.5 mm 9 mps 761 mmHg 70%
    04:00 +12°C° 0.5 mm 8 mps 762 mmHg 73%
    05:00 +11°C° 0.5 mm 8 mps 763 mmHg 76%
    06:00 +11°C° 0.5 mm 7 mps 763 mmHg 75%
    07:00 +11°C° 0.5 mm 7 mps 764 mmHg 73%
    08:00 +11°C° 0.5 mm 6 mps 764 mmHg 72%
    09:00 +14°C° 0.1 mm 6 mps 764 mmHg 66%
    10:00 +15°C° 0.1 mm 6 mps 765 mmHg 61%
    11:00 +16°C° 0.1 mm 5 mps 765 mmHg 56%
    12:00 +17°C° 0 mm 5 mps 765 mmHg 49%
    13:00 +19°C° 0 mm 5 mps 765 mmHg 41%
    14:00 +20°C° 0 mm 5 mps 765 mmHg 34%
    15:00 +20°C° 0 mm 6 mps 765 mmHg 35%
    16:00 +19°C° 0 mm 6 mps 765 mmHg 36%
    17:00 +17°C° 0 mm 6 mps 765 mmHg 36%
    18:00 +16°C° 0 mm 5 mps 766 mmHg 42%
    19:00 +14°C° 0 mm 5 mps 766 mmHg 48%
    20:00 +13°C° 0 mm 5 mps 767 mmHg 54%
    21:00 +13°C° 0 mm 5 mps 767 mmHg 53%
    22:00 +12°C° 0 mm 5 mps 768 mmHg 51%
    23:00 +11°C° 0 mm 6 mps 768 mmHg 49%

    Tomorrow, 26 September, Wednesday

    Time Temperature Precipitation Wind Pressure Humidity
    00:00 +11°C° 0 mm 6 mps 768 mmHg 49%
    01:00 +11°C° 0 mm 7 mps 768 mmHg 49%
    02:00 +10°C° 0 mm 8 mps 769 mmHg 49%
    03:00 +10°C° 0 mm 8 mps 769 mmHg 50%
    04:00 +9°C° 0 mm 8 mps 769 mmHg 51%
    05:00 +9°C° 0 mm 8 mps 769 mmHg 52%
    06:00 +10°C° 0 mm 9 mps 769 mmHg 51%
    07:00 +10°C° 0 mm 9 mps 769 mmHg 49%
    08:00 +11°C° 0 mm 9 mps 770 mmHg 48%
    09:00 +12°C° 0.1 mm 10 mps 770 mmHg 43%
    10:00 +13°C° 0.1 mm 10 mps 770 mmHg 39%
    11:00 +16°C° 0.1 mm 10 mps 770 mmHg 35%
    12:00 +16°C° 0 mm 10 mps 770 mmHg 34%
    13:00 +16°C° 0 mm 10 mps 769 mmHg 33%
    14:00 +17°C° 0 mm 10 mps 769 mmHg 32%
    15:00 +16°C° 0 mm 10 mps 769 mmHg 33%
    16:00 +16°C° 0 mm 10 mps 769 mmHg 35%
    17:00 +14°C° 0 mm 10 mps 769 mmHg 37%
    18:00 +13°C° 0 mm 10 mps 769 mmHg 39%
    19:00 +12°C° 0 mm 9 mps 769 mmHg 41%
    20:00 +11°C° 0 mm 9 mps 769 mmHg 44%
    21:00 +11°C° 0.1 mm 9 mps 770 mmHg 45%
    22:00 +10°C° 0.1 mm 9 mps 770 mmHg 46%
    23:00 +9°C° 0.1 mm 10 mps 770 mmHg 47%

    Day after tomorrow, 27 September, Thursday

    Time Temperature Precipitation Wind Pressure Humidity
    00:00 +10°C° 0 mm 9 mps 770 mmHg 47%
    01:00 +8°C° 0 mm 9 mps 769 mmHg 47%
    02:00 +8°C° 0 mm 9 mps 769 mmHg 47%
    03:00 +8°C° 0 mm 9 mps 769 mmHg 48%
    04:00 +7°C° 0 mm 9 mps 769 mmHg 49%
    05:00 +7°C° 0 mm 9 mps 768 mmHg 50%
    06:00 +8°C° 0.1 mm 9 mps 768 mmHg 50%
    07:00 +8°C° 0.1 mm 9 mps 768 mmHg 49%
    08:00 +10°C° 0.1 mm 9 mps 768 mmHg 48%
    09:00 +11°C° 0.1 mm 9 mps 768 mmHg 49%
    10:00 +13°C° 0.1 mm 9 mps 768 mmHg 50%
    11:00 +15°C° 0.1 mm 9 mps 768 mmHg 51%
    12:00 +16°C° 0.1 mm 9 mps 767 mmHg 51%
    13:00 +16°C° 0.1 mm 9 mps 767 mmHg 51%
    14:00 +17°C° 0.1 mm 9 mps 766 mmHg 51%
    15:00 +17°C° 0.1 mm 9 mps 766 mmHg 52%
    16:00 +17°C° 0.1 mm 9 mps 766 mmHg 54%
    17:00 +16°C° 0.1 mm 9 mps 765 mmHg 55%
    18:00 +15°C° 0 mm 8 mps 765 mmHg 59%
    19:00 +13°C° 0 mm 8 mps 766 mmHg 64%
    20:00 +12°C° 0 mm 8 mps 766 mmHg 68%
    21:00 +12°C° 0 mm 8 mps 765 mmHg 70%
    22:00 +12°C° 0 mm 7 mps 765 mmHg 71%
    23:00 +12°C° 0 mm 7 mps 765 mmHg 72%

    28 September, Friday

    Time Temperature Precipitation Wind Pressure Humidity
    00:00 +12°C° 0 mm 7 mps 765 mmHg 71%
    01:00 +12°C° 0 mm 7 mps 764 mmHg 71%
    02:00 +11°C° 0 mm 7 mps 764 mmHg 70%
    03:00 +11°C° 0 mm 7 mps 764 mmHg 70%
    04:00 +11°C° 0 mm 7 mps 763 mmHg 70%
    05:00 +11°C° 0 mm 7 mps 763 mmHg 70%
    06:00 +12°C° 0 mm 7 mps 763 mmHg 66%
    07:00 +14°C° 0 mm 7 mps 763 mmHg 63%
    08:00 +15°C° 0 mm 7 mps 763 mmHg 59%
    09:00 +17°C° 0 mm 7 mps 763 mmHg 56%
    10:00 +19°C° 0 mm 6 mps 763 mmHg 53%
    11:00 +21°C° 0 mm 6 mps 763 mmHg 50%
    12:00 +21°C° 0 mm 6 mps 762 mmHg 49%
    13:00 +22°C° 0 mm 6 mps 762 mmHg 49%
    14:00 +22°C° 0 mm 6 mps 761 mmHg 48%
    15:00 +22°C° 0 mm 6 mps 761 mmHg 51%
    16:00 +21°C° 0 mm 5 mps 760 mmHg 55%
    17:00 +20°C° 0 mm 5 mps 760 mmHg 58%
    18:00 +19°C° 0 mm 5 mps 760 mmHg 64%
    19:00 +17°C° 0 mm 4 mps 760 mmHg 71%
    20:00 +15°C° 0 mm 4 mps 760 mmHg 77%
    21:00 +15°C° 0 mm 4 mps 760 mmHg 79%
    22:00 +15°C° 0 mm 4 mps 759 mmHg 81%
    23:00 +14°C° 0 mm 4 mps 759 mmHg 83%

    29 September, Saturday

    Time Temperature Precipitation Wind Pressure Humidity
    00:00 +14°C° 0.1 mm 3 mps 759 mmHg 84%
    01:00 +15°C° 0.1 mm 2 mps 759 mmHg 84%
    02:00 +15°C° 0.1 mm 2 mps 759 mmHg 84%
    03:00 +15°C° 0.4 mm 2 mps 759 mmHg 84%
    04:00 +15°C° 0.4 mm 2 mps 759 mmHg 84%
    05:00 +15°C° 0.4 mm 2 mps 759 mmHg 84%
    06:00 +15°C° 0.3 mm 2 mps 758 mmHg 82%
    07:00 +16°C° 0.3 mm 2 mps 758 mmHg 79%
    08:00 +17°C° 0.3 mm 2 mps 758 mmHg 76%
    09:00 +19°C° 0.3 mm 3 mps 758 mmHg 71%
    10:00 +20°C° 0.3 mm 3 mps 758 mmHg 66%
    11:00 +22°C° 0.3 mm 3 mps 758 mmHg 61%
    12:00 +22°C° 0.2 mm 3 mps 758 mmHg 61%
    13:00 +22°C° 0.2 mm 3 mps 758 mmHg 60%
    14:00 +22°C° 0.2 mm 3 mps 758 mmHg 60%
    15:00 +22°C° 0 mm 3 mps 758 mmHg 62%
    16:00 +22°C° 0 mm 3 mps 758 mmHg 63%
    17:00 +21°C° 0 mm 3 mps 758 mmHg 65%
    18:00 +20°C° 0 mm 3 mps 758 mmHg 72%
    19:00 +19°C° 0 mm 3 mps 759 mmHg 79%
    20:00 +17°C° 0 mm 3 mps 759 mmHg 86%
    21:00 +17°C° 0 mm 3 mps 759 mmHg 87%
    22:00 +16°C° 0 mm 3 mps 759 mmHg 88%
    23:00 +16°C° 0 mm 2 mps 760 mmHg 89%

    30 September, Sunday

    Time Temperature Precipitation Wind Pressure Humidity
    00:00 +16°C° 0 mm 3 mps 760 mmHg 89%
    01:00 +14°C° 0 mm 3 mps 760 mmHg 89%
    02:00 +14°C° 0 mm 4 mps 760 mmHg 89%
    03:00 +14°C° 0 mm 4 mps 760 mmHg 89%
    04:00 +14°C° 0 mm 5 mps 760 mmHg 89%
    05:00 +13°C° 0 mm 5 mps 761 mmHg 90%
    06:00 +14°C° 0 mm 5 mps 761 mmHg 86%
    07:00 +15°C° 0 mm 6 mps 761 mmHg 82%
    08:00 +15°C° 0 mm 6 mps 762 mmHg 79%
    09:00 +17°C° 0.1 mm 6 mps 762 mmHg 71%
    10:00 +20°C° 0.1 mm 6 mps 762 mmHg 63%
    11:00 +22°C° 0.1 mm 7 mps 762 mmHg 56%
    12:00 +22°C° 0.3 mm 7 mps 761 mmHg 54%
    13:00 +23°C° 0.3 mm 7 mps 761 mmHg 52%
    14:00 +24°C° 0.3 mm 7 mps 761 mmHg 50%
    15:00 +23°C° 0.1 mm 7 mps 761 mmHg 54%
    16:00 +22°C° 0.1 mm 7 mps 761 mmHg 58%
    17:00 +21°C° 0.1 mm 7 mps 761 mmHg 63%
    18:00 +20°C° 0.2 mm 7 mps 761 mmHg 70%
    19:00 +17°C° 0.2 mm 6 mps 762 mmHg 77%
    20:00 +16°C° 0.2 mm 6 mps 762 mmHg 85%
    21:00 +16°C° 0.2 mm 5 mps 762 mmHg 86%
    22:00 +15°C° 0.2 mm 5 mps 762 mmHg 88%
    23:00 +15°C° 0.2 mm 5 mps 762 mmHg 90%
    Show more